Vertical_Velocity
1 1 0 -1 -1 -1 -0 -1 -0 -1 -1 -1 0 -1 -1 -1 -1 -0 -1 -0 0 -0 -0 -1 -1 -1 -1 -1 -1 -0 -1 -1 -1 -1 -0 -1 -1 -1 -0 -0 0 0 -0
1 1 1 -0 0 -1 -0 -0 0 -0 -0 -1 -1 -1 -1 -0 -1 -1 -1 0 -0 -0 0 -1 -0 -1 -1 -2 -1 -1 -1 -1 -0 -1 -1 -1 -1 -1 -1 -1 -0 -0 0
-0 -0 0 -1 0 -1 0 -0 0 0 1 0 0 -1 -0 -0 0 -0 -1 -1 -1 -1 -0 0 -1 -1 -1 -1 -1 -1 -0 -0 -1 -1 -1 -1 -1 -1 -1 -0 -1 -1 -1
-0 0 -0 -0 0 -1 -0 -0 0 -0 1 1 1 0 -0 0 -1 -0 -1 -1 -1 -1 0 0 0 -0 -0 -0 -0 -0 0 -0 -0 -1 -2 -1 -1 -1 -1 -1 -1 -1 -0
-1 2 -1 -0 -1 -1 -0 0 -0 -1 -1 -0 -1 0 -1 0 -0 -0 -1 -0 -1 -1 -1 -1 -1 -0 -1 -1 -1 -1 -0 0 -0 -0 -1 -1 -1 -1 -1 -1 -2 -1 -1
-2 2 1 0 0 -1 -0 -0 0 -0 -2 -2 -2 0 -0 -0 -0 0 -0 -0 0 0 -0 0 -0 -1 -1 -0 -1 -1 -1 0 0 0 0 -0 -0 -0 -1 -1 -0 -0 -1
-2 1 -1 -1 -1 -0 -0 -1 -1 0 -0 -0 0 -1 -1 -1 -1 -1 -0 0 0 0 -1 -1 0 -1 5 0 -1 -1 -2 -2 0 0 1 1 -1 -2 -1 -1 -1 -1 -1
-1 1 1 -1 -0 -1 -1 -1 -0 1 0 -0 1 0 -0 -1 -0 0 -1 -1 0 -0 -0 -1 -1 0 1 1 2 5 -0 -1 -1 0 -0 -1 -0 0 -1 0 1 1 1
-2 -0 0 -1 -0 0 -0 -1 -0 1 1 -0 1 -0 2 -0 -1 -0 0 -1 -1 -1 -1 -1 -1 -1 -1 -0 -1 -1 0 0 0 -1 -0 -0 -3 -1 1 1 -0 -1 -0
-1 -0 -0 -0 0 -0 0 0 -1 0 -0 0 0 0 1 1 0 -0 -1 -1 -1 -1 -1 -0 -1 -1 -1 -1 -0 -1 -1 -0 0 -0 -0 1 -1 1 -1 -1 0 -0 -2
-1 -1 0 0 0 0 -0 -1 -1 -2 -1 -2 -1 -1 -2 -0 -1 -2 -1 0 -1 -1 -1 -1 -0 1 0 -0 -0 -1 -1 -0 -1 -0 -1 0 -2 -1 -0 -0 1 3 1
-0 -0 -0 -0 -0 -0 -0 -0 -0 -0 -0 -1 -1 -1 -2 -1 -0 -0 -1 -1 -2 -1 -1 -1 -1 -1 -1 1 1 1 1 -0 -0 0 -0 -0 -1 -0 -0 -0 -0 1 1
-0 0 -0 0 0 -0 -0 -1 -1 -0 -0 -0 0 -0 0 -1 -1 -1 -0 -0 1 2 1 1 1 -0 -0 -2 -2 -1 0 -0 -0 -0 1 0 1 1 0 -0 -1 1 -0
1 -0 0 1 -0 0 -0 -0 -1 0 -1 -0 -0 0 1 1 1 -0 0 1 -0 -0 -0 -1 -1 -0 -1 -1 -0 1 0 -0 -0 -1 0 1 1 1 0 -0 -1 -1 -1
-1 -0 1 -0 0 1 -1 -1 -2 -1 -1 -1 -1 -2 -2 -2 -2 -2 -1 -1 -1 0 1 1 1 1 1 1 -1 -1 -0 0 1 1 1 -0 -1 -1 -1 -1 0 -0 -0
-1 -0 0 -1 0 -1 -2 -1 -2 -0 -1 -1 0 -1 -2 -1 -0 0 -1 -1 -1 -1 -1 -0 -0 1 0 1 1 1 1 1 0 -0 0 1 1 1 1 0 0 2 1
-1 -1 -2 -0 -0 -0 -1 -1 -1 -1 -1 -1 -2 -1 -1 -0 -1 -0 -1 -0 -1 -1 -1 -1 -0 -1 -1 2 1 -1 1 1 1 0 0 1 1 1 1 1 -0 1 1
-1 -2 1 0 0 -1 -1 -1 -1 -1 -0 -0 -1 -1 -1 -0 -1 -1 -2 -2 -2 -2 0 -1 0 0 -1 0 -0 -2 -1 0 -0 1 0 1 2 -1 -2 -1 -0 -1 -1
1 1 1 0 -1 -1 -1 -1 0 -0 -1 -0 -0 -1 -2 -2 -1 -1 0 -1 -0 -1 -2 -1 -2 1 1 -1 -2 -2 -0 2 1 2 1 -0 -2 -1 -0 1 0 -1 -1
-0 2 0 -1 -1 -0 -1 -0 1 -0 -1 -0 -1 -1 -1 -1 -2 -1 -1 -2 1 -1 -2 -2 -1 -3 1 0 -1 -0 -1 -0 1 1 -2 -0 -2 -2 -0 -1 -1 -1 -2
2 0 -0 1 1 -0 -1 1 -1 -0 -1 -1 0 -2 -2 -2 -2 -2 -1 -1 -2 -2 0 -1 -0 -2 -1 -1 1 -1 -0 1 -1 -2 -1 -1 -2 -1 -0 -0 -0 -0 -0
0 1 1 -0 -1 -0 2 1 0 1 -0 -1 -2 -1 1 0 0 -1 -2 -2 -1 -1 -2 -1 1 2 -2 1 0 3 1 -1 -0 -0 -0 -2 -2 -1 -1 -1 -0 -0 0
1 -2 -1 -1 0 1 0 0 1 -0 -2 -1 0 -3 -3 -0 -1 -1 -2 -2 -1 -1 -1 -2 -1 0 2 -0 -2 2 2 3 0 -1 -1 -2 -2 -1 -2 -0 1 2 -0
-1 -0 0 -0 0 -0 1 0 -0 -0 -0 -0 0 0 -1 1 -2 -0 -2 -1 -1 1 1 -3 -2 -1 2 1 0 -0 0 2 2 8 0 -1 -3 -1 -1 -0 1 -0 -2
-1 0 1 1 -0 -1 -2 -1 0 0 -1 -1 -2 -1 -3 -2 -2 1 -1 -0 -1 -2 -1 -0 -1 -2 -1 -1 1 1 0 -2 -3 -0 8 2 -3 -1 -0 -0 1 1 0
-2 -0 1 -0 -1 1 1 -1 0 0 -1 -2 -3 -3 -3 -1 -2 -1 -1 -1 -2 -1 0 -1 -2 -1 0 1 -0 -1 0 -0 -1 -2 -2 2 1 -1 -3 -1 -0 -1 -1
Height
3191 3192 3193 3194 3194 3194 3194 3194 3194 3193 3193 3192 3192 3192 3191 3191 3190 3189 3189 3188 3187 3187 3186 3186 3185 3184 3183 3182 3181 3180 3179 3178 3177 3176 3175 3175 3174 3174 3173 3173 3173 3172 3172
3190 3191 3193 3194 3194 3194 3194 3194 3194 3193 3193 3193 3192 3192 3191 3191 3190 3189 3189 3188 3187 3186 3186 3185 3184 3184 3183 3182 3181 3180 3179 3178 3177 3176 3175 3174 3173 3172 3172 3171 3171 3171 3171
3190 3191 3192 3193 3194 3194 3194 3193 3193 3193 3192 3192 3192 3191 3191 3190 3190 3189 3188 3188 3187 3186 3185 3184 3183 3182 3181 3181 3180 3179 3178 3177 3176 3175 3174 3173 3172 3171 3170 3170 3169 3169 3169
3190 3191 3192 3193 3193 3193 3193 3193 3193 3192 3192 3191 3191 3191 3190 3189 3189 3188 3187 3186 3186 3185 3184 3183 3182 3181 3180 3179 3179 3178 3177 3176 3176 3174 3173 3172 3171 3170 3169 3168 3168 3167 3166
3190 3191 3192 3192 3193 3193 3192 3192 3192 3192 3191 3190 3190 3189 3189 3188 3187 3186 3186 3185 3184 3184 3183 3182 3181 3180 3179 3178 3177 3176 3175 3174 3174 3173 3172 3170 3169 3168 3168 3167 3166 3165 3164
3191 3191 3192 3192 3192 3192 3191 3191 3191 3190 3190 3189 3188 3187 3187 3186 3185 3184 3183 3182 3182 3181 3180 3180 3179 3178 3177 3176 3175 3173 3172 3172 3171 3170 3169 3168 3167 3166 3165 3164 3164 3163 3162
3190 3191 3192 3192 3192 3192 3191 3190 3190 3189 3188 3187 3186 3186 3185 3184 3183 3181 3180 3180 3179 3178 3178 3177 3176 3175 3174 3173 3172 3171 3170 3169 3168 3167 3166 3165 3164 3164 3163 3162 3161 3161 3160
3190 3191 3192 3192 3192 3191 3190 3189 3188 3187 3187 3186 3185 3184 3183 3182 3181 3179 3178 3177 3176 3175 3174 3174 3173 3172 3171 3170 3169 3167 3166 3165 3164 3164 3162 3162 3161 3161 3160 3160 3159 3158 3157
3189 3190 3191 3190 3190 3189 3189 3188 3187 3186 3185 3184 3182 3182 3180 3180 3178 3177 3176 3175 3173 3172 3171 3170 3169 3168 3167 3166 3165 3164 3162 3161 3160 3159 3158 3158 3158 3157 3157 3156 3155 3154 3154
3189 3189 3189 3189 3188 3188 3187 3186 3185 3184 3182 3182 3181 3179 3178 3177 3176 3175 3174 3172 3171 3169 3168 3166 3165 3163 3162 3161 3160 3159 3158 3157 3156 3155 3154 3154 3152 3152 3153 3152 3151 3150 3150
3188 3188 3188 3187 3186 3185 3184 3183 3182 3181 3180 3180 3179 3178 3176 3175 3174 3172 3171 3169 3168 3166 3164 3162 3160 3159 3157 3156 3155 3153 3152 3151 3150 3150 3149 3149 3148 3147 3147 3146 3146 3145 3145
3186 3186 3186 3185 3184 3183 3182 3181 3180 3179 3178 3177 3177 3176 3174 3172 3170 3168 3166 3164 3162 3160 3158 3156 3154 3153 3152 3150 3149 3147 3145 3144 3144 3143 3143 3142 3142 3141 3141 3140 3139 3139 3138
3184 3184 3183 3182 3181 3180 3179 3178 3177 3177 3176 3175 3174 3172 3170 3168 3165 3163 3160 3158 3155 3154 3152 3150 3147 3146 3144 3142 3141 3140 3139 3137 3136 3136 3135 3134 3133 3134 3133 3133 3132 3132 3132
3181 3181 3181 3180 3179 3178 3176 3176 3175 3174 3173 3171 3170 3168 3166 3163 3160 3157 3155 3152 3150 3147 3145 3143 3141 3139 3137 3134 3133 3132 3130 3129 3128 3127 3127 3126 3125 3125 3125 3125 3125 3125 3124
3178 3178 3178 3177 3176 3175 3174 3173 3172 3171 3170 3168 3167 3164 3162 3159 3156 3153 3150 3147 3144 3142 3140 3137 3134 3132 3129 3128 3125 3124 3123 3121 3119 3118 3118 3118 3117 3116 3116 3116 3115 3115 3115
3175 3175 3175 3174 3173 3172 3171 3170 3169 3168 3166 3164 3162 3160 3158 3155 3152 3149 3146 3142 3139 3136 3133 3131 3128 3125 3122 3120 3118 3116 3114 3113 3112 3110 3109 3109 3108 3107 3107 3107 3107 3107 3107
3173 3173 3173 3171 3170 3169 3168 3167 3165 3164 3162 3160 3158 3155 3152 3150 3147 3144 3142 3138 3135 3131 3128 3124 3121 3118 3115 3113 3111 3108 3107 3106 3104 3103 3102 3102 3102 3101 3101 3100 3099 3098 3098
3170 3169 3169 3168 3166 3165 3164 3163 3162 3160 3158 3156 3153 3150 3147 3144 3142 3139 3136 3133 3129 3125 3121 3118 3114 3111 3108 3106 3104 3103 3101 3100 3099 3097 3096 3096 3096 3095 3094 3093 3092 3091 3091
3167 3166 3165 3163 3163 3162 3161 3159 3157 3155 3153 3151 3148 3145 3142 3140 3137 3133 3130 3127 3123 3119 3115 3112 3108 3105 3102 3101 3099 3097 3095 3094 3093 3092 3091 3091 3090 3089 3088 3088 3086 3085 3083
3163 3162 3161 3160 3159 3158 3156 3154 3152 3150 3148 3146 3143 3141 3138 3136 3132 3128 3124 3121 3117 3114 3110 3106 3102 3098 3096 3096 3094 3091 3090 3089 3088 3088 3087 3086 3084 3084 3084 3083 3082 3080 3077
3159 3158 3157 3156 3155 3153 3151 3149 3148 3146 3144 3142 3140 3138 3135 3132 3128 3124 3120 3116 3112 3108 3104 3101 3097 3093 3090 3091 3090 3087 3086 3085 3084 3084 3083 3081 3079 3079 3078 3077 3076 3074 3072
3154 3154 3153 3151 3150 3148 3146 3144 3143 3141 3139 3138 3136 3134 3131 3127 3123 3119 3115 3112 3108 3104 3100 3095 3092 3089 3087 3087 3085 3084 3083 3082 3081 3080 3078 3076 3075 3074 3073 3071 3070 3069 3067
3150 3149 3148 3146 3144 3142 3141 3139 3138 3137 3136 3134 3132 3128 3125 3122 3119 3115 3111 3108 3104 3101 3097 3093 3089 3086 3084 3083 3081 3081 3080 3080 3079 3077 3075 3072 3071 3069 3068 3066 3064 3064 3062
3144 3143 3141 3140 3139 3137 3136 3135 3134 3133 3132 3130 3128 3125 3120 3117 3114 3111 3107 3103 3101 3098 3096 3092 3087 3084 3082 3080 3078 3077 3077 3077 3076 3077 3073 3070 3068 3066 3064 3062 3060 3059 3058
3138 3138 3136 3135 3134 3133 3132 3131 3130 3129 3127 3126 3123 3120 3116 3112 3109 3106 3103 3100 3097 3095 3093 3090 3087 3084 3082 3079 3077 3076 3074 3073 3073 3072 3072 3068 3064 3062 3061 3059 3056 3055 3053
3134 3134 3132 3131 3130 3129 3128 3127 3126 3125 3123 3121 3118 3114 3110 3107 3104 3101 3099 3096 3094 3091 3089 3086 3084 3083 3081 3079 3076 3074 3072 3070 3069 3067 3066 3066 3063 3059 3057 3056 3053 3051 3049